Location: Alto Pass Reservoir
(37.5801°N, 89.3084°W)
Time: 09:47:20
(UTC+00:00)

Cosmos 1666 - Pass Details

Date: 01 July 2022
Orbit: 489 x 511 km, 82.5° (Epoch: 07 August)

Event Time Altitude Azimuth Distance (km) Brightness Sun altitude
Exits shadow 09:31:53 13° 193° (SSW) 1,560 4.6 -11.7°
Maximum altitude 09:35:15 73° 278° (W) 531 2.6 -11.2°
Drops below altitude 10° 09:39:00 10° 3° (N) 1,712 6.0 -10.6°
Sets 09:41:07 0° 5° (N) 2,596 7.0 -10.3°
